Retour au catalogue

STARLINK-11421

ActifCommunicationsVLEO
NORAD 61945·PAYLOAD·🇺🇸 United States

Lancé Nov 14, 2024 depuis Vandenberg Space Force Base

Loading…

Prochains Passages (prochaines 24 heures)

TLE

FraisSource: CelesTrak SupGP

Époque: Sep 14, 2026, 22:41 UTC

1 61945C 24209G   26257.94562500 -.00056477  00000+0 -46505-3 0  2575
2 61945  53.1569 158.4690 0001026  91.8651 151.1100 15.69746926    13

Suivez STARLINK-11421 en temps réel avec AllMySat

Download on the App Store